SITRO-AIS 27

Last updated on Sat Aug 15 2026 00:03:45 GMT+0000 (Coordinated Universal Time)

1 59068U 24039T 26226.62380557 .00003023 00000+0 23216-3 0 9994 2 59068 95.3865 275.4269 0145349 122.3192 239.2206 14.94048819133466
UTC large
Height (km)
Speed (km/s)
/
Latitude / Longitude
Inclination (degrees)
Orbital Period (minutes)
Azimuth
Elevation
Range (km)
Doppler Factor

Next 0 passes for location: London (51.5072 / 0.1276)

No passes found over London.
SITRO-AIS 27